Flag for Finland Weather past 2 weeks in Turku, Finland

Now
12 °F

Light snow. Low clouds.


Feels Like: 3 °F
Forecast: 3 / 26 °F
Wind: 6 mph from East

Location: Turku Airport

Current Time: Dec 28, 2014 at 5:58:20 PM

Latest Report: Dec 28, 2014 at 5:20 PM


Visibility: N/A

Pressure: 30.18 "Hg

Humidity: 92%

Dew point: 10 °F

Location of TurkuLocation

Historic Weather in Turku — Graph

°F

Turku temperature yesterday

Maximum temperature yesterday: 27 °F (at 1:20 PM)
Minimum temperature yesterday: 12 °F (at 6:50 AM)
Average temperature yesterday: 17 °F

Past Weeks' High & Low Weather Summary

 TemperatureHumidityPressure
High41 °F (Dec 15, 4:20 AM)100% (Dec 13, 4:20 PM)30.18 "Hg (Dec 13, 4:20 PM)
Low1 °F (Dec 25, 5:50 PM)70% (Dec 15, 8:50 AM)28.97 "Hg (Dec 19, 4:50 PM)
Average29 °F90%29.47 "Hg
* Reported Dec 13 4:20 PM — Dec 28 4:50 PM, Turku, Weather by CustomWeather, © 2014

Note: Actual official high and low records may vary slightly from our data, if they occured in-between our weather recording intervals... More about our weather records

Advertising

Turku weather history for previous 24 hours

 ConditionsComfort  
Time TempWeatherWind HumidityBarometerVisibility
4:50 PM
Dec 28
12 °FLight snow. Low clouds.6 mph92%30.18 "HgN/A
4:20 PM12 °FLight snow. Low clouds.6 mph92%30.15 "HgN/A
3:50 PM12 °FLight snow. Low clouds.7 mph92%30.15 "HgN/A
3:20 PM14 °FLight snow. Low clouds.6 mph92%30.15 "HgN/A
2:50 PM14 °FLight snow. Low clouds.6 mph92%30.15 "HgN/A
2:20 PM14 °FLight snow. Low clouds.6 mph92%30.12 "HgN/A
1:50 PM14 °FLight snow. Low clouds.6 mph92%30.12 "HgN/A
1:20 PM14 °FLight snow. Low clouds.5 mph92%30.12 "HgN/A
12:50 PM14 °FLight snow. Low clouds.8 mph92%30.12 "HgN/A
12:20 PM14 °FLight snow. Low clouds.6 mph92%30.12 "HgN/A
11:50 AM16 °FLight snow. Low clouds.6 mph86%30.12 "HgN/A
11:20 AM16 °FLight snow. Low clouds.5 mph86%30.12 "HgN/A
10:50 AM16 °FLight snow. Low clouds.8 mph86%30.09 "HgN/A
10:20 AM16 °FLight snow. Low clouds.6 mph93%30.09 "Hg3 mi
9:50 AM16 °FLight snow. Overcast.6 mph93%30.09 "Hg6 mi
9:20 AM18 °FLight snow. Overcast.7 mph86%30.07 "HgN/A
8:50 AM18 °FLight snow. Overcast.6 mph86%30.07 "HgN/A
8:20 AM18 °FLight snow. Overcast.7 mph86%30.07 "HgN/A
7:50 AM18 °FLight snow. Overcast.8 mph86%30.07 "HgN/A
7:20 AM18 °FLight snow. Overcast.6 mph86%30.04 "HgN/A
6:50 AM18 °FLight snow. Overcast.6 mph86%30.04 "Hg6 mi
6:20 AM18 °FLight snow. Overcast.6 mph86%30.04 "Hg4 mi
5:20 AM18 °FLight snow. Overcast.8 mph86%30.04 "Hg4 mi
4:50 AM18 °FLight snow. Overcast.8 mph86%30.04 "Hg5 mi
4:20 AM18 °FLight snow. Overcast.8 mph86%30.01 "Hg6 mi
3:50 AM18 °FLight snow. Low clouds.5 mph93%30.01 "HgN/A
3:20 AM18 °FLight snow. Overcast.7 mph93%30.01 "HgN/A
2:50 AM18 °FLight snow. Overcast.5 mph93%30.01 "HgN/A
2:20 AM19 °FLight snow. Overcast.5 mph86%30.01 "HgN/A
1:50 AM19 °FLight snow. Overcast.5 mph86%30.01 "HgN/A
1:20 AM19 °FLight snow. Overcast.3 mph86%29.98 "HgN/A
12:50 AM19 °FLight snow. Overcast.5 mph86%29.98 "HgN/A
12:20 AM18 °FLight snow. Overcast.3 mph93%29.98 "HgN/A
11:50 PM
Dec 27
18 °FLight snow. Overcast.3 mph93%29.98 "HgN/A
11:20 PM19 °FLight snow. Overcast.6 mph86%29.95 "HgN/A
10:50 PM18 °FOvercast.3 mph93%29.95 "HgN/A
10:20 PM18 °FOvercast.3 mph93%29.95 "HgN/A
9:50 PM16 °FOvercast.3 mph93%29.95 "HgN/A
9:20 PM14 °FOvercast.2 mph92%29.95 "HgN/A
8:50 PM12 °FOvercast.3 mph92%29.95 "HgN/A
8:20 PM12 °FPassing clouds.2 mph92%29.92 "HgN/A
7:50 PM14 °FPassing clouds.2 mph92%29.92 "HgN/A
7:20 PM16 °FPassing clouds.5 mph93%29.92 "HgN/A
6:50 PM14 °FPassing clouds.2 mph92%29.92 "HgN/A
6:20 PM16 °FPassing clouds.2 mph93%29.89 "HgN/A
5:50 PM18 °FLight snow. Low clouds.6 mph93%29.89 "HgN/A
5:20 PM18 °FLight snow. Low clouds.10 mph93%29.89 "HgN/A
Weather by CustomWeather, © 2014

See weather overviewHow to use our weather pages